Date String (YYYY-MM-DD hh:mm:ss) UTC,Instrument flags,absolute air pressure of the measurement (hPa),sample flow rate (lpm),inlet stack bypass flow (lpm),air temperature of the measurement (°C),ambient temperature measured by the external sensor (°C),aerosol sample conditioner tube jacket temperature (°C),OPC LED temperature (°C),internal box temperature (°C),relative humidity of the measurement (%),span deviation,mass concentration of particles derived from Lorenz-Mie calculation of OPC scattering (μg/m³),mass concentration of particles derived from Lorenz-Mie calculation of OPC scattering (μg/m³),mass concentration of particles derived from Lorenz-Mie calculation of OPC scattering (μg/m³)
DateTimeUTC,F1_M11,P_M11,Q1_M11,Q2_M11,T1_M11,T2_M11,T3_M11,T4_M11,T5_M11,U1_M11,ZSPAN_M11,X0_M11,X2_M11,X1_M11
2023-09-11 13:00:00,SystemResetWarning,0837.6,5.00,000.00,028.6,026.9,000.0,037.1,030.1,32.0,0000.6,0007.97,0004.44,0004.04
2023-09-11 13:01:00,SystemResetWarning,0837.6,5.00,000.00,028.6,027.0,000.0,037.1,030.1,32.0,0000.8,0007.99,0004.43,0004.03
2023-09-11 13:02:00,SystemResetWarning,0837.6,5.00,000.00,028.6,027.0,000.0,037.1,030.1,32.1,0000.8,0008.06,0004.43,0004.02
2023-09-11 13:03:00,SystemResetWarning,0837.6,5.00,000.00,028.6,027.1,000.0,037.1,030.2,32.1,0000.5,0008.11,0004.44,0004.03
2023-09-11 13:04:00,SystemResetWarning,0837.6,5.01,000.00,028.6,027.1,000.0,037.1,030.2,32.1,0000.3,0008.50,0004.44,0004.01
2023-09-11 13:05:00,SystemResetWarning,0837.6,5.00,000.00,028.6,027.2,000.0,037.1,030.2,32.2,-000.1,0008.45,0004.40,0003.99
2023-09-11 13:06:00,SystemResetWarning,0837.7,5.00,000.00,028.7,027.2,000.0,037.1,030.3,32.2,-000.0,0008.45,0004.39,0003.97
2023-09-11 13:07:00,SystemResetWarning,0837.6,5.00,000.00,028.7,027.3,000.0,037.1,030.3,32.1,0000.3,0008.38,0004.37,0003.97
2023-09-11 13:08:00,SystemResetWarning,0837.6,5.01,000.00,028.7,027.3,000.0,037.1,030.3,32.1,-000.0,0008.09,0004.36,0003.97
2023-09-11 13:09:00,SystemResetWarning,0837.6,5.00,000.00,028.7,027.4,000.0,037.1,030.3,32.2,-000.0,0008.03,0004.36,0003.98
2023-09-11 13:10:00,SystemResetWarning,0837.6,5.00,000.00,028.7,027.4,000.0,037.1,030.4,32.2,0000.3,0007.89,0004.38,0004.01
2023-09-11 13:11:00,SystemResetWarning,0837.6,5.00,000.00,028.8,027.4,000.0,037.1,030.4,32.2,0000.4,0007.82,0004.37,0004.02
2023-09-11 13:12:00,SystemResetWarning,0837.6,4.99,000.00,028.8,027.4,000.0,037.1,030.4,32.2,0000.4,0007.77,0004.39,0004.05
2023-09-11 13:13:00,SystemResetWarning,0837.6,4.99,000.00,028.8,027.5,000.0,037.1,030.4,32.2,0000.3,0007.82,0004.46,0004.11
2023-09-11 13:14:00,SystemResetWarning,0837.6,5.00,000.00,028.8,027.5,000.0,037.1,030.5,32.2,0000.3,0007.82,0004.48,0004.12
2023-09-11 13:15:00,SystemResetWarning,0837.6,5.00,000.00,028.8,027.5,000.0,037.1,030.5,32.2,0000.0,0007.49,0004.51,0004.15
2023-09-11 13:16:00,SystemResetWarning,0837.6,5.00,000.00,028.9,027.5,000.0,037.1,030.5,32.2,-000.1,0007.51,0004.54,0004.18
2023-09-11 13:17:00,SystemResetWarning,0837.7,5.00,000.00,028.9,027.6,000.0,037.1,030.5,32.2,-000.1,0007.50,0004.56,0004.21
2023-09-11 13:18:00,SystemResetWarning,0837.7,5.00,000.00,028.9,027.6,000.0,037.2,030.6,32.2,-000.5,0007.61,0004.63,0004.25
2023-09-11 13:19:00,SystemResetWarning,0837.7,4.99,000.00,028.9,027.6,000.0,037.2,030.6,32.2,-000.7,0007.58,0004.64,0004.26
2023-09-11 13:20:00,SystemResetWarning,0837.7,4.99,000.00,028.9,027.6,000.0,037.2,030.6,32.3,-000.6,0007.57,0004.66,0004.30
2023-09-11 13:21:00,SystemResetWarning,0837.7,4.99,000.00,028.9,027.6,000.0,037.2,030.6,32.3,-000.5,0007.58,0004.68,0004.34
2023-09-11 13:22:00,SystemResetWarning,0837.7,5.00,000.00,028.9,027.7,000.0,037.2,030.6,32.2,-000.6,0007.63,0004.71,0004.37
2023-09-11 13:23:00,SystemResetWarning,0837.7,5.01,000.00,029.0,027.7,000.0,037.2,030.6,32.2,-000.8,0008.36,0004.76,0004.42
2023-09-11 13:24:00,SystemResetWarning,0837.7,5.01,000.00,029.0,027.7,000.0,037.2,030.6,32.2,-000.7,0008.44,0004.78,0004.44
2023-09-11 13:25:00,SystemResetWarning,0837.7,5.00,000.00,029.0,027.7,000.0,037.3,030.7,32.2,-000.7,0008.57,0004.86,0004.48
2023-09-11 13:26:00,SystemResetWarning,0837.8,4.98,000.00,029.0,027.7,000.0,037.3,030.7,32.1,-000.3,0008.63,0004.91,0004.52
2023-09-11 13:27:00,SystemResetWarning,0837.8,5.00,000.00,029.0,027.7,000.0,037.3,030.7,32.0,-000.2,0008.68,0004.95,0004.59
2023-09-11 13:28:00,SystemResetWarning,0837.8,5.01,000.00,029.0,027.8,000.0,037.3,030.7,31.9,-000.1,0008.79,0005.03,0004.66
2023-09-11 13:29:00,SystemResetWarning,0837.8,5.01,000.00,029.1,027.8,000.0,037.3,030.7,31.9,-000.3,0008.86,0005.07,0004.70
2023-09-11 13:30:00,SystemResetWarning,0837.8,4.99,000.00,029.1,027.8,000.0,037.3,030.7,32.0,-000.2,0008.91,0005.11,0004.76
2023-09-11 13:31:00,SystemResetWarning,0837.8,4.99,000.00,029.1,027.8,000.0,037.3,030.7,32.0,-000.1,0008.94,0005.12,0004.78
2023-09-11 13:32:00,SystemResetWarning,0837.8,4.99,000.00,029.1,027.8,000.0,037.3,030.7,32.2,-000.5,0008.95,0005.13,0004.77
2023-09-11 13:33:00,SystemResetWarning,0837.8,5.00,000.00,029.1,027.8,000.0,037.4,030.8,32.2,-000.5,0009.04,0005.16,0004.79
2023-09-11 13:34:00,SystemResetWarning,0837.8,5.00,000.00,029.1,027.8,000.0,037.4,030.8,32.1,-000.4,0008.57,0005.19,0004.81
2023-09-11 13:35:00,SystemResetWarning,0837.8,5.00,000.00,029.1,027.8,000.0,037.4,030.8,32.1,-000.5,0008.50,0005.23,0004.84
2023-09-11 13:36:00,SystemResetWarning,0837.8,5.01,000.00,029.2,027.8,000.0,037.4,030.8,32.1,-000.6,0008.44,0005.19,0004.83
2023-09-11 13:37:00,SystemResetWarning,0837.8,5.00,000.00,029.2,027.8,000.0,037.4,030.8,32.3,-000.4,0008.46,0005.18,0004.84
2023-09-11 13:38:00,SystemResetWarning,0837.8,5.00,000.00,029.2,027.8,000.0,037.4,030.8,32.2,-000.1,0008.74,0005.20,0004.85
2023-09-11 13:39:00,SystemResetWarning,0837.8,5.00,000.00,029.2,027.8,000.0,037.4,030.8,32.2,-000.3,0008.77,0005.22,0004.87
2023-09-11 13:40:00,SystemResetWarning,0837.8,5.00,000.00,029.2,027.9,000.0,037.5,030.8,32.1,-000.3,0008.89,0005.26,0004.91
2023-09-11 13:41:00,SystemResetWarning,0837.8,5.00,000.00,029.2,027.9,000.0,037.5,030.8,32.1,-000.3,0008.90,0005.30,0004.96
2023-09-11 13:42:00,SystemResetWarning,0837.8,5.00,000.00,029.2,027.9,000.0,037.5,030.8,31.9,-000.2,0008.99,0005.38,0005.03
2023-09-11 13:43:00,SystemResetWarning,0837.8,5.00,000.00,029.2,027.9,000.0,037.5,030.9,31.8,-000.3,0009.07,0005.46,0005.12
2023-09-11 13:44:00,SystemResetWarning,0837.8,5.00,000.00,029.2,027.9,000.0,037.5,030.9,31.4,-000.2,0009.16,0005.54,0005.21
2023-09-11 13:45:00,SystemResetWarning,0837.8,5.00,000.00,029.2,027.9,000.0,037.5,030.9,31.5,-000.2,0009.42,0005.63,0005.28
2023-09-11 13:46:00,SystemResetWarning,0837.8,4.99,000.00,029.2,027.0,000.0,037.5,030.7,31.4,-000.3,0009.38,0005.67,0005.33
2023-09-11 13:47:00,SystemResetWarning,0837.8,5.00,000.00,029.2,025.4,000.0,037.4,030.4,31.5,-000.2,0009.66,0005.73,0005.38
2023-09-11 13:48:00,SystemResetWarning,0837.8,5.00,000.00,029.1,024.7,000.0,037.3,030.2,31.4,-000.8,0010.25,0005.81,0005.43
2023-09-11 13:49:00,SystemResetWarning,0837.8,5.01,000.00,028.9,024.8,000.0,037.3,029.9,31.7,-001.0,0010.10,0005.86,0005.46
2023-09-11 13:50:00,SystemResetWarning,0837.8,5.00,000.00,028.8,025.2,000.0,037.3,029.9,32.0,-001.0,0010.16,0005.90,0005.49
2023-09-11 13:51:00,SystemResetWarning,0837.7,5.00,000.00,028.7,025.5,000.0,037.3,029.9,31.7,-001.0,0010.10,0005.90,0005.50
2023-09-11 13:52:00,SystemResetWarning,0837.8,5.01,000.00,028.7,025.9,000.0,037.2,030.0,32.0,-001.0,0010.12,0005.88,0005.49
2023-09-11 13:53:00,SystemResetWarning,0837.8,5.00,000.00,028.7,026.2,000.0,037.2,030.0,32.0,-000.8,0010.44,0005.88,0005.49
2023-09-11 13:54:00,SystemResetWarning,0837.8,4.99,000.00,028.7,026.4,000.0,037.2,030.1,31.9,-000.5,0010.49,0005.90,0005.49
2023-09-11 13:55:00,SystemResetWarning,0837.8,5.00,000.00,028.6,026.6,000.0,037.2,030.1,31.8,-000.5,0010.50,0005.89,0005.48
2023-09-11 13:56:00,SystemResetWarning,0837.8,5.01,000.00,028.7,026.8,000.0,037.2,030.2,31.7,-000.5,0010.29,0005.86,0005.45
2023-09-11 13:57:00,SystemResetWarning,0837.8,5.00,000.00,028.7,027.0,000.0,037.2,030.2,31.7,-000.3,0010.34,0005.85,0005.42
2023-09-11 13:58:00,SystemResetWarning,0837.8,5.00,000.00,028.7,027.1,000.0,037.2,030.2,31.8,-000.4,0010.31,0005.85,0005.42
2023-09-11 13:59:00,SystemResetWarning,0837.8,5.00,000.00,028.7,027.2,000.0,037.2,030.3,31.6,-000.1,0009.79,0005.85,0005.43
